KUIPER-00415
导读 | 豆包AI
KUIPER-00415(NORAD编号68930)是亚马逊柯伊伯(Kuiper)卫星互联网项目的运营卫星之一,属于近地轨道(LEO)宽带通信卫星。作为Kuiper星座组网的组成部分,它运行在距离地面数百公里的低轨轨道,承担全球高速互联网接入服务的任务,支持低延迟宽带通信,可向全球未覆盖互联网的区域提供网络连接,也可作为移动回传补充地面网络。该卫星是Kuiper项目完成原型测试后批量部署的运营卫星之一,目前处于在轨运行状态,服务于亚马逊全球卫星互联网组网目标,与SpaceX星链形成市场竞争。
Basic Information
目录编号:
68930
目录名称:
KUIPER-00415
国际标识:
2026-098M
轨道中心:
EARTH
卫星名称:
KUIPER-00415
卫星全名:
KUIPER-00415
卫星状态:
在轨 (已飞行25 天)
发射日期:
2026-04-30 UTC
国别 :
美国
(US)
星等 :
--
Orbit Information
| 数据来源 | 国际轨道数据 | AOE轨道数据 |
| 星历时间 | 2026-05-24T03:58:56+0800 1天前 查看轨道信息 | 2026-05-22T04:00:00+0800 3天前 查看轨道信息 |
| 半长轴 | 6844.353km | 6844.42km |
| 偏心率 | 0.0011008 | 0.0011506 |
| 轨道倾角 | 51.879° | 51.872° |
| 近地点辐角 | 52.258° | 44.903° |
| 升交点赤经 | 185.279° | 194.890° |
| 平近点角 | 307.940° | 73.364° |
| 近地点 | 458.681km | 458.407km |
| 远地点 | 473.751km | 474.159km |
| 周期 | 93.920分钟 | 93.921分钟 |
| 每日圈数 | 15.332192 | 15.331964 |
Detailed Information
使用方式:
暂无
2D Orbit Map
3D Orbit Map
Orbit Altitude Analysis Chart
Orbit Inclination Analysis Chart
Orbit Comprehensive Analysis Chart
View Comprehensive Chart

